Location: Haliburton Scout Reserve
(45.0900°N, 78.3200°W)
Time: 03:36:06
(UTC-04:00)

POLYITAN 1 - Visible Passes

Search period start: 16 May 2022 00:00
Search period end: 26 May 2022 00:00
Orbit: 586 x 607 km, 98.0° (Epoch: 15 May)

Date Brightness Start Highest point End Pass type
(mag) Time Alt. Az. Time Alt. Az. Time Alt. Az.
16 May ? 02:29:04 10° NNE 02:32:57 37° E 02:33:31 35° ESE visible
16 May ? 04:05:12 10° NNW 04:08:22 21° WNW 04:10:12 16° W visible
17 May ? 02:39:05 10° NNE 02:43:07 47° E 02:43:49 43° SE visible
17 May ? 04:15:39 10° NNW 04:18:24 17° WNW 04:20:30 12° W visible
18 May ? 02:49:08 10° NNE 02:53:16 62° ESE 02:54:06 49° SSE visible
18 May ? 04:26:15 10° NNW 04:28:24 14° WNW 04:30:34 10° W visible
19 May ? 02:59:12 10° NNE 03:03:23 80° ESE 03:04:23 51° S visible
19 May ? 04:37:08 10° NW 04:38:23 11° WNW 04:39:39 10° WNW visible
20 May ? 03:09:19 10° N 03:13:29 79° WNW 03:14:39 46° SSW visible
21 May ? 01:45:42 10° ENE 01:47:31 12° E 01:48:14 12° E visible
21 May ? 03:19:27 10° N 03:23:33 61° WNW 03:24:55 39° SW visible
22 May ? 01:55:07 10° NE 01:57:43 16° E 01:58:29 15° ESE visible
22 May ? 03:29:36 10° N 03:33:37 47° WNW 03:35:10 31° SW visible
23 May ? 02:04:46 10° NE 02:07:53 20° E 02:08:43 19° ESE visible
23 May ? 03:39:47 10° N 03:43:38 37° WNW 03:45:24 25° WSW visible
24 May ? 02:14:32 10° NE 02:18:01 25° E 02:18:56 23° ESE visible
24 May ? 03:50:01 10° N 03:53:39 30° WNW 03:55:37 20° WSW visible
25 May ? 02:24:22 10° NNE 02:28:08 32° E 02:29:09 28° SE visible
25 May ? 04:00:16 10° NNW 04:03:38 24° WNW 04:05:50 16° WSW visible
